{"data":{"norad_id":56126,"intl_designator":"2023-046AL","name":"STARLINK-6124","alt_names":[],"object_type":"PAYLOAD","status":"ACTIVE","operator":null,"country":"US","launch_date":"2023-03-29","launch_site_code":"AFETR","launch_vehicle":null,"mission":null,"orbit_class":"UNKNOWN","rcs_meters":null,"size_class":null,"mass_kg":null,"dimensions":null,"purposes":["comms"],"wikipedia_slug":null,"has_3d_model":false,"image_url":null,"decayed_at":null,"tle_current":{"epoch":"2026-05-25T01:59:41.992224Z","epoch_age_seconds":61236,"freshness":"FRESH","line1":"1 56126U 23046AL  26145.08312491  .00000059  00000+0  11660-4 0  9992","line2":"2 56126  43.0045  75.5501 0001173 263.6735  96.3983 15.27576962173880","mean_motion":15.27576962,"eccentricity":0.0001173,"inclination_deg":43.0045,"raan_deg":75.5501,"arg_perigee_deg":263.6735,"mean_anomaly_deg":96.3983,"bstar":1.166e-5,"rev_number":17388,"period_min":94.266936188581,"perigee_km":482.25337472351,"apogee_km":483.86301111577,"semimajor_km":6861.1951929196,"source":"CELESTRAK","updated_at":"2026-05-25T13:38:17.959618Z"}}}